Weather History for Rome, NY

Change the Weather History Date:

Monday, July 29, 2013

  Actual Average Record
Temperature  
Mean Temperature 64 °F -  
Max Temperature 75 °F 80 °F 91 °F (1988)
Min Temperature 55 °F 58 °F 50 °F (1981)
Degree Days  
Heating Degree Days 1    
Growing Degree Days 14 (Base 50)    
Moisture  
Dew Point 56 °F    
Average Humidity 81    
Maximum Humidity 100    
Minimum Humidity 50    
Precipitation  
Precipitation 0.01 in - - ()
Sea Level Pressure  
Sea Level Pressure 30.05 in    
Wind  
Wind Speed 3 mph (West)    
Max Wind Speed 15 mph    
Max Gust Speed 18 mph    
Visibility 9 miles    
Events Rain    
Averages and records for this station are not official NWS values.
T = Trace of Precipitation, MM = Missing Value Source: NWS Daily Summary

Daily Weather History Graph

Daily Weather History Graph

Search for Another Location

Airport:

Trip Planner

Search our weather history database for the weather conditions in past years. The results will help you decide how hot, cold, wet, or windy it might be!

Date:

Astronomy

Jul. 29, 2013 Rise Set
Actual Time 5:48 AM EDT 8:26 PM EDT
Civil Twilight 5:16 AM EDT 8:59 PM EDT
Nautical Twilight 4:35 AM EDT 9:40 PM EDT
Astronomical Twilight 3:48 AM EDT 10:26 PM EDT
Moon No Moon Rise 1:43 PM EDT (7/29)
Length of Visible Light 15h 42m
Length of Day
14h 37m
Waning Gibbous, 51% of the Moon is Illuminated
Jul 29
Waning Gibbous
Jul 29
Last Quarter
Aug 6
New
Aug 14
First Quarter
Aug 20
Full

Hourly Weather History & Observations

Time (EDT) Temp. Dew Point Humidity Pressure Visibility Wind Dir Wind Speed Gust Speed Precip Events Conditions
12:53 AM 61.0 °F 57.9 °F 90% 29.99 in 10.0 mi Calm Calm - 0.01 in   Partly Cloudy
1:53 AM 60.1 °F 57.9 °F 93% 30.00 in 10.0 mi Calm Calm - N/A   Clear
2:53 AM 59.0 °F 57.9 °F 96% 30.00 in 10.0 mi NE 3.5 mph - N/A   Clear
3:53 AM 57.0 °F 55.9 °F 96% 30.01 in 10.0 mi Calm Calm - N/A   Clear
4:24 AM 55.9 °F 55.0 °F 97% 30.02 in 3.0 mi Calm Calm - N/A   Partly Cloudy
4:53 AM 55.9 °F 55.0 °F 97% 30.02 in 10.0 mi Calm Calm - N/A   Clear
5:08 AM 55.9 °F 55.0 °F 97% 30.03 in 10.0 mi Calm Calm - N/A   Scattered Clouds
5:33 AM 57.0 °F 55.0 °F 93% 30.03 in 10.0 mi ESE 3.5 mph - N/A   Mostly Cloudy
5:41 AM 57.0 °F 55.9 °F 96% 30.03 in 1.8 mi Calm Calm - N/A   Mostly Cloudy
5:53 AM 55.9 °F 55.0 °F 97% 30.02 in 1.8 mi Calm Calm - N/A   Overcast
6:14 AM 55.0 °F 54.0 °F 96% 30.04 in 3.0 mi Calm Calm - N/A   Overcast
6:39 AM 55.9 °F 55.9 °F 100% 30.04 in 10.0 mi Calm Calm - N/A   Scattered Clouds
6:53 AM 57.0 °F 55.9 °F 96% 30.04 in 10.0 mi Calm Calm - N/A   Clear
7:48 AM 59.0 °F 57.2 °F 94% 30.05 in 10.0 mi SSE 3.5 mph - N/A   Partly Cloudy
7:53 AM 59.0 °F 57.9 °F 96% 30.05 in 10.0 mi SSE 3.5 mph - N/A   Scattered Clouds
8:02 AM 59.0 °F 57.9 °F 96% 30.06 in 9.0 mi Variable 3.5 mph - N/A   Mostly Cloudy
8:53 AM 61.0 °F 59.0 °F 93% 30.06 in 10.0 mi SE 5.8 mph - N/A   Overcast
9:31 AM 64.0 °F 61.0 °F 90% 30.06 in 10.0 mi ESE 8.1 mph - N/A   Scattered Clouds
9:53 AM 66.9 °F 61.0 °F 81% 30.06 in 10.0 mi ESE 5.8 mph - N/A   Clear
10:53 AM 69.1 °F 57.9 °F 68% 30.05 in 10.0 mi Calm Calm - N/A   Overcast
11:53 AM 72.0 °F 57.0 °F 59% 30.05 in 10.0 mi Variable 4.6 mph - N/A   Partly Cloudy
12:53 PM 73.0 °F 55.0 °F 53% 30.05 in 10.0 mi West 10.4 mph 18.4 mph N/A   Mostly Cloudy
1:53 PM 73.0 °F 55.0 °F 53% 30.05 in 10.0 mi Variable 3.5 mph - N/A   Partly Cloudy
2:53 PM 73.0 °F 55.0 °F 53% 30.05 in 10.0 mi West 9.2 mph - N/A   Overcast
3:53 PM 73.9 °F 54.0 °F 50% 30.05 in 10.0 mi West 8.1 mph - N/A   Overcast
4:53 PM 73.0 °F 54.0 °F 51% 30.06 in 10.0 mi West 15.0 mph - N/A   Overcast
5:53 PM 71.1 °F 54.0 °F 55% 30.06 in 10.0 mi WNW 13.8 mph - N/A   Overcast
6:53 PM 69.1 °F 54.0 °F 58% 30.07 in 10.0 mi WNW 8.1 mph - N/A   Overcast
7:53 PM 68.0 °F 55.9 °F 65% 30.09 in 10.0 mi WNW 6.9 mph - N/A   Mostly Cloudy
8:53 PM 64.9 °F 57.0 °F 75% 30.10 in 10.0 mi WNW 8.1 mph - 0.00 in Rain Light Rain
9:53 PM 63.0 °F 55.9 °F 78% 30.12 in 10.0 mi Calm Calm - 0.00 in   Mostly Cloudy
10:53 PM 61.0 °F 55.9 °F 83% 30.12 in 10.0 mi North 3.5 mph - N/A   Clear
11:53 PM 59.0 °F 55.9 °F 90% 30.13 in 10.0 mi Calm Calm - N/A   Clear